Weather History for Lancaster, PA

Change the Weather History Date:

Friday, February 15, 2013

  Actual Average Record
Temperature  
Mean Temperature 40 °F -  
Max Temperature 52 °F 41 °F 58 °F (1982)
Min Temperature 28 °F 24 °F 5 °F (1983)
Degree Days  
Heating Degree Days 25    
Moisture  
Dew Point 30 °F    
Average Humidity 78    
Maximum Humidity 96    
Minimum Humidity 45    
Precipitation  
Precipitation 0.25 in - - ()
Sea Level Pressure  
Sea Level Pressure 29.99 in    
Wind  
Wind Speed 4 mph (WNW)    
Max Wind Speed 16 mph    
Max Gust Speed -    
Visibility 5 miles    
Events Fog , Rain , Snow    
Averages and records for this station are not official NWS values.
T = Trace of Precipitation, MM = Missing Value Source: NWS Daily Summary

Daily Weather History Graph

Daily Weather History Graph

Search for Another Location

Airport:

Trip Planner

Search our weather history database for the weather conditions in past years. The results will help you decide how hot, cold, wet, or windy it might be!

Date:

Astronomy

Feb. 15, 2013 Rise Set
Actual Time 6:57 AM EST 5:41 PM EST
Civil Twilight 6:30 AM EST 6:09 PM EST
Nautical Twilight 5:58 AM EST 6:40 PM EST
Astronomical Twilight 5:26 AM EST 7:12 PM EST
Moon 9:32 AM EST (2/15) 11:40 PM EST (2/15)
Length of Visible Light 11h 38m
Length of Day
10h 43m
Waxing Crescent, 30% of the Moon is Illuminated
Feb 15
Waxing Crescent
Feb 17
First Quarter
Feb 25
Full
Mar 4
Last Quarter
Mar 11
New

Hourly Weather History & Observations

Time (EST) Temp. Windchill Dew Point Humidity Pressure Visibility Wind Dir Wind Speed Gust Speed Precip Events Conditions
12:53 AM 34.0 °F - 25.0 °F 70% 29.99 in 7.0 mi Calm Calm - N/A   Clear
1:53 AM 33.1 °F 28.7 °F 25.0 °F 72% 29.98 in 7.0 mi NE 4.6 mph - N/A   Partly Cloudy
2:53 AM 33.1 °F - 25.0 °F 72% 29.98 in 8.0 mi Calm Calm - N/A   Clear
3:53 AM 32.0 °F - 26.1 °F 79% 29.98 in 7.0 mi Calm Calm - N/A   Partly Cloudy
4:53 AM 30.0 °F - 25.0 °F 82% 29.99 in 5.0 mi Calm Calm - N/A   Haze
5:53 AM 30.9 °F - 27.0 °F 85% 29.99 in 5.0 mi Calm Calm - N/A   Mostly Cloudy
6:53 AM 28.9 °F - 25.0 °F 85% 30.00 in 4.0 mi Calm Calm - N/A   Clear
7:53 AM 30.0 °F - 27.0 °F 88% 30.02 in 4.0 mi Calm Calm - N/A   Clear
8:53 AM 37.0 °F - 30.9 °F 79% 30.03 in 4.0 mi Calm Calm - N/A   Haze
9:53 AM 41.0 °F 38.0 °F 30.9 °F 67% 30.02 in 7.0 mi WNW 4.6 mph - N/A   Clear
10:53 AM 46.9 °F - 30.9 °F 54% 30.01 in 9.0 mi West 3.5 mph - N/A   Clear
11:53 AM 51.1 °F - 32.0 °F 48% 29.98 in 10.0 mi WSW 12.7 mph - N/A   Clear
12:53 PM 52.0 °F - 30.9 °F 45% 29.95 in 10.0 mi West 11.5 mph - N/A   Partly Cloudy
1:53 PM 52.0 °F - 32.0 °F 47% 29.94 in 10.0 mi West 11.5 mph - N/A   Partly Cloudy
2:53 PM 51.1 °F - 32.0 °F 48% 29.94 in 10.0 mi West 13.8 mph - N/A   Mostly Cloudy
3:53 PM 50.0 °F - 30.0 °F 46% 29.94 in 10.0 mi WNW 6.9 mph - N/A   Overcast
4:53 PM 48.0 °F - 28.9 °F 48% 29.93 in 10.0 mi NNW 6.9 mph - N/A   Overcast
5:53 PM 45.0 °F 37.9 °F 27.0 °F 49% 29.95 in 10.0 mi WNW 16.1 mph - N/A   Overcast
6:53 PM 41.0 °F 34.3 °F 32.0 °F 70% 29.97 in 10.0 mi NW 11.5 mph - N/A   Overcast
7:53 PM 39.0 °F 34.0 °F 34.0 °F 82% 29.98 in 7.0 mi NW 6.9 mph - 0.00 in Rain Light Rain
8:07 PM 37.4 °F 32.1 °F 35.6 °F 93% 29.97 in 6.0 mi NW 6.9 mph - 0.01 in Rain Light Rain
8:42 PM 35.6 °F 29.2 °F 33.8 °F 93% 29.99 in 4.0 mi NW 8.1 mph - 0.06 in Rain Rain
8:53 PM 35.1 °F 27.9 °F 32.0 °F 89% 30.01 in 4.0 mi NW 9.2 mph - 0.08 in Rain Rain
9:04 PM 35.6 °F 28.6 °F 32.0 °F 87% 30.00 in 4.0 mi NW 9.2 mph - 0.01 in Rain Rain
9:19 PM 33.8 °F 27.7 °F 30.2 °F 87% 30.00 in 2.5 mi WNW 6.9 mph - 0.03 in Snow Light Snow
9:30 PM 33.8 °F 28.6 °F 30.2 °F 87% 30.00 in 1.5 mi WNW 5.8 mph - 0.05 in Snow Light Snow
9:53 PM 32.0 °F - 30.9 °F 96% 30.01 in 0.8 mi North - - 0.09 in Snow Light Snow
10:12 PM 32.0 °F - 30.2 °F 93% 30.01 in 0.5 mi North - - 0.03 in Fog , Snow Snow
10:34 PM 32.0 °F - 30.2 °F 93% 30.00 in 1.0 mi North - - 0.06 in Snow Light Snow
10:41 PM 32.0 °F - 30.2 °F 93% 30.00 in 2.0 mi North - - 0.06 in Snow Light Snow
10:50 PM 32.0 °F - 30.2 °F 93% 29.99 in 1.8 mi North - - 0.07 in Snow Light Snow
10:53 PM 32.0 °F - 30.9 °F 96% 30.01 in 1.5 mi North - - 0.07 in Snow Light Snow
11:00 PM 32.0 °F - 30.2 °F 93% 29.99 in 1.5 mi North - - 0.00 in Snow Light Snow
11:20 PM 32.0 °F - 30.2 °F 93% 29.99 in 2.0 mi North - - 0.00 in   Overcast
11:29 PM 32.0 °F - 30.2 °F 93% 30.00 in 1.8 mi North - - 0.00 in   Overcast
11:39 PM 32.0 °F - 30.2 °F 93% 30.00 in 1.2 mi North - - 0.01 in Snow Light Snow
11:53 PM 32.0 °F - 30.9 °F 96% 30.00 in 1.5 mi North - - 0.01 in Snow Light Snow
11:57 PM 32.0 °F - 30.2 °F 93% 29.99 in 1.5 mi North - - N/A   Overcast